This is the latest recevied weather packets stored in our database for station/object TA2LKM-11. If no packets are shown the sender has not sent any weather packets the latest 10 day(s).
| Time | Temp. | Humidity | Pressure | Rain* | Wind** | Luminosity | Snow |
|---|---|---|---|---|---|---|---|
| 1788657015 | 20° C | 52% | 1015.8 hPa | - | - | - | - |
| 1788656115 | 20° C | 49% | 1015.7 hPa | - | - | - | - |
| 1788655213 | 20.56° C | 50% | 1015.7 hPa | - | - | - | - |
| 1788654222 | 20.56° C | 49% | 1015.8 hPa | - | - | - | - |
| 1788653321 | 20.56° C | 51% | 1015.9 hPa | - | - | - | - |
| 1788653232 | 20.56° C | 51% | 1015.8 hPa | - | - | - | - |
| 1788652331 | 20.56° C | 49% | 1015.9 hPa | - | - | - | - |
| 1788651431 | 21.11° C | 49% | 1015.8 hPa | - | - | - | - |
| 1788650530 | 21.11° C | 50% | 1015.9 hPa | - | - | - | - |
| 1788649629 | 20.56° C | 49% | 1015.9 hPa | - | - | - | - |
| 1788648728 | 21.11° C | 49% | 1015.9 hPa | - | - | - | - |
| 1788647828 | 20.56° C | 50% | 1016 hPa | - | - | - | - |
| 1788646946 | 22.22° C | 48% | 1016 hPa | - | - | - | - |
| 1788646026 | 22.22° C | 49% | 1016.1 hPa | - | - | - | - |
| 1788645938 | 22.22° C | 48% | 1016.1 hPa | - | - | - | - |
| 1788645037 | 21.67° C | 49% | 1016.1 hPa | - | - | - | - |
| 1788644136 | 22.22° C | 47% | 1015.9 hPa | - | - | - | - |
| 1788643235 | 23.33° C | 43% | 1016 hPa | - | - | - | - |
| 1788642335 | 24.44° C | 39% | 1016 hPa | - | - | - | - |
| 1788641434 | 25° C | 38% | 1016 hPa | - | - | - | - |
| 1788640532 | 24.44° C | 40% | 1015.9 hPa | - | - | - | - |
| 1788640444 | 24.44° C | 42% | 1016 hPa | - | - | - | - |
| 1788639543 | 24.44° C | 41% | 1015.8 hPa | - | - | - | - |
| 1788638643 | 25.56° C | 41% | 1015.8 hPa | - | - | - | - |
| 1788637742 | 25.56° C | 39% | 1015.8 hPa | - | - | - | - |
* Rain since midnight (hover to see other rain measurements)
** Current wind speed in m/s (hover to see current wind gust speed)